NR0Q Weather Reports


time (UTC)temp
C
wind
direction
speed
KPH
gust
KPH
rain 1hr
cm
rain 24hr
cm
rain mn
cm
humidity
%
barometer
mb
20260906194501 39 30 0.0 3.2 0.00 0.00 0.00 28 1012.5
20260906193001 40 223 3.2 6.4 0.00 0.00 0.00 28 1013.6
20260906191502 39 159 12.9 12.9 0.00 0.00 0.00 29 1013.6
20260906190001 40 173 3.2 9.7 0.00 0.00 0.00 28 1013.6
20260906184501 40 161 9.7 12.9 0.00 0.00 0.00 28 1013.6
20260906183002 40 242 6.4 6.4 0.00 0.00 0.00 28 1013.6
20260906181501 40 333 6.4 6.4 0.00 0.00 0.00 29 1013.6
20260906180001 38 250 3.2 3.2 0.00 0.00 0.00 32 1014.6
20260906174502 38 23 0.0 3.2 0.00 0.00 0.00 31 1014.6
20260906173001 39 204 6.4 9.7 0.00 0.00 0.00 31 1015.6
20260906171501 38 162 6.4 6.4 0.00 0.00 0.00 32 1015.6
20260906170001 38 188 6.4 6.4 0.00 0.00 0.00 33 1015.6
20260906164501 38 143 3.2 3.2 0.00 0.00 0.00 35 1015.6
20260906163002 36 310 6.4 9.7 0.00 0.00 0.00 39 1015.6
20260906161502 36 176 0.0 3.2 0.00 0.00 0.00 41 1015.6
20260906160001 35 169 3.2 3.2 0.00 0.00 0.00 42 1015.6
20260906154501 35 328 6.4 6.4 0.00 0.00 0.00 42 1015.6
20260906153002 33 70 0.0 3.2 0.00 0.00 0.00 47 1015.6
20260906151502 33 350 3.2 3.2 0.00 0.00 0.00 47 1015.6
20260906150001 32 195 0.0 0.0 0.00 0.00 0.00 47 1015.6
20260906144502 31 229 9.7 9.7 0.00 0.00 0.00 50 1015.6
20260906143001 32 140 3.2 3.2 0.00 0.00 0.00 52 1015.6
20260906141502 29 224 0.0 0.0 0.00 0.00 0.00 59 1015.6
20260906140002 28 222 0.0 3.2 0.00 0.00 0.00 62 1015.6
20260906134501 27 221 6.4 6.4 0.00 0.00 0.00 66 1015.6
20260906133001 26 189 3.2 6.4 0.00 0.00 0.00 72 1015.6
20260906131501 24 125 6.4 6.4 0.00 0.00 0.00 77 1015.6
20260906130002 23 284 0.0 0.0 0.00 0.00 0.00 79 1015.6
20260906124503 22 260 3.2 3.2 0.00 0.00 0.00 82 1014.6
20260906123001 22 87 3.2 3.2 0.00 0.00 0.00 83 1014.6
20260906121502 23 168 3.2 6.4 0.00 0.00 0.00 83 1014.6
20260906120002 23 303 0.0 3.2 0.00 0.00 0.00 82 1014.6
20260906114501 23 276 0.0 0.0 0.00 0.00 0.00 81 1014.6
20260906113002 23 88 3.2 3.2 0.00 0.00 0.00 80 1014.6
20260906111502 23 293 3.2 6.4 0.00 0.00 0.00 79 1014.6
20260906110002 23 116 3.2 3.2 0.00 0.00 0.00 79 1014.6
20260906104501 23 344 0.0 3.2 0.00 0.00 0.00 77 1013.6
20260906103002 23 301 0.0 3.2 0.00 0.00 0.00 79 1014.6
20260906101502 23 94 3.2 6.4 0.00 0.00 0.00 78 1013.6
20260906100001 23 303 3.2 3.2 0.00 0.00 0.00 77 1014.6
20260906094501 23 297 6.4 6.4 0.00 0.00 0.00 77 1013.6
20260906093001 24 104 3.2 6.4 0.00 0.00 0.00 77 1013.6
20260906091502 24 252 3.2 0.0 0.00 0.00 0.00 76 1013.6
20260906090002 24 205 3.2 3.2 0.00 0.00 0.00 76 1013.6
20260906084502 24 164 6.4 6.4 0.00 0.00 0.00 75 1013.6
20260906083002 25 212 0.0 0.0 0.00 0.00 0.00 74 1013.6
20260906081501 25 135 0.0 0.0 0.00 0.00 0.00 73 1013.6
20260906080002 25 15 3.2 0.0 0.00 0.00 0.00 72 1013.6
20260906074501 25 224 0.0 0.0 0.00 0.00 0.00 71 1013.6
20260906073001 25 104 0.0 0.0 0.00 0.00 0.00 71 1013.6
20260906071502 25 135 3.2 0.0 0.00 0.00 0.00 70 1013.6
20260906070002 25 157 0.0 0.0 0.00 0.00 0.00 69 1013.6
20260906064502 25 205 0.0 0.0 0.00 0.00 0.00 69 1013.6
20260906063002 25 173 3.2 3.2 0.00 0.00 0.00 68 1013.6
20260906061502 26 169 3.2 6.4 0.00 0.00 0.00 69 1013.6
20260906060002 26 135 0.0 0.0 0.00 0.00 0.00 67 1013.6
20260906054502 26 37 0.0 0.0 0.00 0.00 0.00 66 1013.6
20260906053002 26 37 0.0 0.0 0.00 0.00 0.00 66 1013.6
20260906051502 26 37 0.0 0.0 0.00 0.00 0.00 65 1013.6
20260906050002 26 217 0.0 0.0 0.00 0.00 0.00 65 1013.6
20260906044503 27 217 0.0 0.0 0.00 0.00 0.00 63 1013.6
20260906043002 27 135 0.0 0.0 0.00 0.00 0.00 63 1013.6
20260906041502 27 157 0.0 0.0 0.00 0.00 0.00 62 1013.6
20260906040002 27 217 0.0 0.0 0.00 0.00 0.00 61 1013.6
20260906034502 28 217 0.0 0.0 0.00 0.00 0.00 60 1013.6
20260906033002 28 217 0.0 0.0 0.00 0.00 0.00 58 1013.6
20260906031502 28 29 0.0 0.0 0.00 0.00 0.00 57 1013.6
20260906030002 28 129 0.0 0.0 0.00 0.00 0.00 56 1013.6
20260906024502 29 129 0.0 0.0 0.00 0.00 0.00 54 1013.6
20260906023002 30 50 0.0 0.0 0.00 0.00 0.00 54 1012.5
20260906021502 30 91 3.2 0.0 0.00 0.00 0.00 54 1012.5
20260906020002 30 37 0.0 0.0 0.00 0.00 0.00 52 1012.5
20260906014502 31 166 0.0 0.0 0.00 0.00 0.00 51 1012.5
20260906013003 32 180 0.0 0.0 0.00 0.00 0.00 49 1012.5
20260906011502 33 230 0.0 0.0 0.00 0.00 0.00 45 1012.5
20260906010002 34 230 0.0 0.0 0.00 0.00 0.00 42 1012.5
20260906004502 35 32 0.0 0.0 0.00 0.00 0.00 36 1011.5
20260906003002 36 352 0.0 0.0 0.00 0.00 0.00 34 1012.5
20260906001502 36 317 0.0 3.2 0.00 0.00 0.00 33 1012.5
20260906000001 36 152 0.0 3.2 0.00 0.00 0.00 33 1011.5
20260905234503 37 168 6.4 9.7 0.00 0.00 0.00 32 1011.5
20260905233002 37 190 6.4 9.7 0.00 0.00 0.00 32 1011.5
20260905231502 37 153 12.9 17.7 0.00 0.00 0.00 31 1011.5
20260905230002 37 169 9.7 9.7 0.00 0.00 0.00 31 1011.5
20260905224502 37 193 6.4 9.7 0.00 0.00 0.00 31 1011.5
20260905223001 37 165 20.9 20.9 0.00 0.00 0.00 31 1011.5
20260905221502 37 107 6.4 9.7 0.00 0.00 0.00 32 1011.5
20260905220002 37 134 9.7 9.7 0.00 0.00 0.00 33 1011.5
20260905214502 37 124 6.4 6.4 0.00 0.00 0.00 33 1011.5
20260905213002 37 197 9.7 12.9 0.00 0.00 0.00 31 1012.5
20260905211502 37 119 20.9 20.9 0.00 0.00 0.00 33 1013.6
20260905210002 37 192 9.7 9.7 0.00 0.00 0.00 34 1013.6
20260905204502 37 168 9.7 12.9 0.00 0.00 0.00 32 1013.6
20260905203002 37 231 20.9 24.1 0.00 0.00 0.00 34 1013.6
20260905201501 37 235 3.2 6.4 0.00 0.00 0.00 34 1013.6
20260905200002 37 196 17.7 17.7 0.00 0.00 0.00 34 1013.6